FW4251 Weather Reports


Display with metric or nautical units.
time (UTC)temp
F
wind
direction
speed
MPH
gust
MPH
rain 1hr
in
rain 24hr
in
rain mn
in
humidity
%
barometer
mb
20260903050010 64 184 1.0 6.0 0.00 0.00 0.00 95 1016.9
20260903045503 64 186 1.0 6.0 0.00 0.00 0.00 95 1016.8
20260903045002 64 163 2.0 6.0 0.00 0.00 0.00 95 1016.5
20260903044503 64 184 2.0 4.0 0.00 0.00 0.00 95 1016.9
20260903044100 64 198 1.0 4.0 0.00 0.00 0.00 95 1017.3
20260903043559 64 186 1.0 3.0 0.00 0.00 0.00 95 1017.5
20260903043059 64 191 1.0 6.0 0.00 0.00 0.00 95 1017.8
20260903042558 64 192 2.0 6.0 0.00 0.00 0.00 95 1017.9
20260903042057 64 161 2.0 5.0 0.00 0.00 0.00 95 1017.8
20260903041610 64 161 1.0 5.0 0.00 0.00 0.00 95 1017.7
20260903041055 64 161 1.0 7.0 0.00 0.00 0.00 94 1017.9
20260903040554 64 151 3.0 6.0 0.00 0.00 0.00 94 1018.2
20260903040103 65 161 3.0 6.0 0.00 0.00 0.00 94 1018.4
20260903035552 65 288 1.0 4.0 0.00 0.00 0.00 94 1019.1
20260903035052 64 279 2.0 4.0 0.00 0.00 0.00 94 1019.2
20260903034552 65 229 1.0 3.0 0.00 0.00 0.00 94 1018.7
20260903034053 65 223 0.0 3.0 0.00 0.00 0.00 94 1018.3
20260903033551 64 223 0.0 3.0 0.00 0.00 0.00 94 1018.4
20260903033051 65 223 0.0 2.0 0.00 0.00 0.00 94 1018.3
20260903032551 65 223 1.0 3.0 0.00 0.00 0.00 94 1018.2
20260903032053 65 223 1.0 3.0 0.00 0.00 0.00 94 1017.9
20260903031552 65 223 1.0 4.0 0.00 0.00 0.00 94 1017.8
20260903031052 65 223 1.0 4.0 0.00 0.00 0.00 94 1017.9
20260903030550 65 216 1.0 3.0 0.00 0.00 0.00 94 1018.2
20260903030050 65 215 0.0 2.0 0.00 0.00 0.00 94 1018.1
20260903025549 65 215 0.0 3.0 0.00 0.00 0.00 94 1017.9
20260903025052 65 215 1.0 3.0 0.00 0.00 0.00 94 1017.9
20260903024549 65 215 0.0 4.0 0.00 0.00 0.00 94 1018.1
20260903024047 65 215 1.0 5.0 0.00 0.00 0.00 94 1018.1
20260903023547 65 215 2.0 5.0 0.00 0.00 0.00 94 1018.4
20260903023046 65 233 2.0 5.0 0.00 0.00 0.00 94 1018.4
20260903022548 65 233 2.0 5.0 0.00 0.00 0.00 94 1018.6
20260903022046 65 235 2.0 4.0 0.00 0.00 0.00 94 1018.5
20260903021546 65 235 1.0 4.0 0.00 0.00 0.00 94 1018.7
20260903021045 65 236 0.0 4.0 0.00 0.00 0.00 94 1018.9
20260903020545 65 194 1.0 4.0 0.00 0.00 0.00 94 1019.1
20260903020045 65 193 1.0 7.0 0.00 0.00 0.00 94 1019.3
20260903015544 65 259 1.0 7.0 0.00 0.00 0.00 94 1019.5
20260903015044 65 203 2.0 4.0 0.00 0.00 0.00 94 1019.3
20260903014544 65 203 1.0 4.0 0.00 0.00 0.00 93 1019.4
20260903014047 65 204 0.0 2.0 0.00 0.00 0.00 93 1019.4
20260903013544 65 204 0.0 4.0 0.00 0.00 0.00 93 1019.2
20260903013044 65 204 1.0 4.0 0.00 0.00 0.00 93 1019.3
20260903012543 65 211 0.0 2.0 0.00 0.00 0.00 93 1019.1
20260903012043 65 211 0.0 2.0 0.00 0.00 0.00 93 1019.0
20260903011550 65 211 0.0 4.0 0.00 0.00 0.00 93 1019.2
20260903011045 65 192 0.0 4.0 0.00 0.00 0.00 93 1019.0
20260903010546 65 249 1.0 4.0 0.00 0.00 0.00 93 1019.0
20260903010045 65 249 1.0 4.0 0.00 0.00 0.00 93 1019.1
20260903005543 65 252 1.0 3.0 0.00 0.00 0.00 93 1019.1
20260903005045 65 252 1.0 3.0 0.00 0.00 0.00 93 1019.1
20260903004543 65 214 2.0 4.0 0.00 0.00 0.00 93 1019.0
20260903004042 65 195 1.0 5.0 0.00 0.00 0.00 93 1018.9
20260903003542 65 196 2.0 6.0 0.00 0.00 0.00 93 1018.8
20260903003042 65 200 3.0 6.0 0.00 0.00 0.00 93 1018.7
20260903002542 65 173 3.0 7.0 0.00 0.00 0.00 93 1018.7
20260903002041 65 171 3.0 7.0 0.00 0.00 0.00 93 1018.7
20260903001557 65 154 1.0 5.0 0.00 0.00 0.00 92 1018.6
20260903001041 65 153 2.0 5.0 0.00 0.00 0.00 92 1018.7
20260903000541 65 153 0.0 3.0 0.00 0.00 0.00 92 1019.0
20260903000041 65 153 0.0 2.0 0.00 0.00 0.00 92 1019.0
20260902235540 65 153 1.0 3.0 0.00 0.00 0.00 92 1019.0
20260902235040 65 153 1.0 3.0 0.00 0.00 0.00 92 1018.9
20260902234544 65 153 0.0 2.0 0.00 0.00 0.00 92 1018.9
20260902234040 65 153 0.0 2.0 0.00 0.00 0.00 92 1019.1
20260902233540 65 153 0.0 3.0 0.00 0.00 0.00 92 1019.1
20260902233039 65 153 1.0 3.0 0.00 0.00 0.00 92 1019.1
20260902232540 65 153 1.0 5.0 0.00 0.00 0.00 92 1019.1
20260902232039 65 153 1.0 5.0 0.00 0.00 0.00 92 1019.0
20260902231541 65 153 0.0 3.0 0.00 0.00 0.00 92 1018.8
20260902231040 65 153 0.0 3.0 0.00 0.00 0.00 92 1019.1
20260902230540 65 153 0.0 2.0 0.00 0.00 0.00 92 1019.0
20260902230039 66 153 0.0 3.0 0.00 0.00 0.00 92 1019.0
20260902225539 66 153 1.0 3.0 0.00 0.00 0.00 92 1019.3
20260902225039 66 153 0.0 0.0 0.00 0.00 0.00 92 1019.3
20260902224547 66 153 0.0 2.0 0.00 0.00 0.00 92 1019.4
20260902224038 66 153 0.0 3.0 0.00 0.00 0.00 92 1019.5
20260902223538 66 153 0.0 3.0 0.00 0.00 0.00 92 1019.5
20260902223038 66 153 0.0 0.0 0.00 0.00 0.00 92 1019.6
20260902222538 66 153 0.0 2.0 0.00 0.00 0.00 92 1019.4
20260902222048 66 153 0.0 2.0 0.00 0.00 0.00 92 1019.6
20260902221544 66 153 0.0 5.0 0.00 0.00 0.00 92 1019.7
20260902221037 66 153 0.0 5.0 0.00 0.00 0.00 92 1019.6
20260902220537 66 153 0.0 0.0 0.00 0.00 0.00 92 1019.6
20260902220050 66 153 0.0 4.0 0.00 0.00 0.00 92 1019.6
20260902215536 66 153 1.0 4.0 0.00 0.00 0.00 92 1019.7
20260902215038 66 118 0.0 1.0 0.00 0.00 0.00 92 1019.8
20260902214536 66 118 0.0 4.0 0.00 0.00 0.00 92 1019.8
20260902214038 66 118 2.0 4.0 0.00 0.00 0.00 92 1019.7
20260902213536 66 117 0.0 2.0 0.00 0.00 0.00 92 1019.7
20260902213045 66 117 0.0 3.0 0.00 0.00 0.00 92 1019.7
20260902212536 66 117 0.0 3.0 0.00 0.00 0.00 92 1019.7
20260902212036 66 117 1.0 4.0 0.00 0.00 0.00 92 1019.6
20260902211536 66 117 0.0 4.0 0.00 0.00 0.00 92 1019.6
20260902211035 66 107 0.0 3.0 0.00 0.00 0.00 92 1019.6
20260902210536 66 107 0.0 3.0 0.00 0.00 0.00 92 1019.7
20260902210035 66 107 0.0 3.0 0.00 0.00 0.00 92 1019.6
20260902205534 66 103 0.0 4.0 0.00 0.00 0.00 93 1019.6
20260902205035 66 68 0.0 3.0 0.00 0.00 0.00 93 1019.5
20260902204535 67 68 0.0 3.0 0.00 0.00 0.00 93 1019.7
20260902204035 67 67 0.0 2.0 0.00 0.00 0.00 93 1020.0
20260902203534 67 67 1.0 2.0 0.00 0.00 0.00 93 1019.8
20260902203034 66 67 0.0 3.0 0.00 0.00 0.00 93 1019.7
20260902202534 66 67 0.0 3.0 0.00 0.00 0.00 93 1019.8
20260902202034 66 67 0.0 2.0 0.00 0.00 0.00 93 1019.8
20260902201533 66 67 0.0 4.0 0.00 0.00 0.00 93 1019.7
20260902201036 66 65 1.0 4.0 0.00 0.00 0.00 93 1019.5
20260902200533 66 66 0.0 3.0 0.00 0.00 0.00 93 1019.5
20260902200033 66 66 1.0 3.0 0.00 0.00 0.00 93 1019.5
20260902195533 66 172 0.0 6.0 0.00 0.00 0.00 93 1019.5
20260902195033 66 169 3.0 6.0 0.00 0.00 0.00 93 1019.6
20260902194541 66 195 2.0 7.0 0.00 0.00 0.00 93 1019.5
20260902194033 66 181 1.0 6.0 0.00 0.00 0.00 93 1019.5
20260902193532 67 191 2.0 6.0 0.00 0.00 0.00 93 1019.8
20260902193031 66 210 0.0 3.0 0.00 0.00 0.00 93 1019.9
20260902192531 66 211 1.0 4.0 0.00 0.00 0.00 93 1019.8
20260902192030 66 211 1.0 6.0 0.00 0.00 0.00 93 1020.0
20260902191631 66 214 2.0 6.0 0.00 0.00 0.00 93 1019.9
20260902191030 66 186 1.0 7.0 0.00 0.00 0.00 93 1019.9
20260902190529 66 155 2.0 9.0 0.00 0.00 0.00 93 1019.9
20260902190047 66 193 2.0 9.0 0.00 0.00 0.00 93 1020.1
20260902185630 66 202 3.0 7.0 0.00 0.00 0.00 93 1020.1
20260902185031 66 277 1.0 4.0 0.00 0.00 0.00 93 1020.3
20260902184527 66 221 1.0 4.0 0.00 0.00 0.00 93 1020.2
20260902184026 66 147 2.0 7.0 0.00 0.00 0.00 93 1020.1
20260902183526 66 223 2.0 5.0 0.00 0.00 0.00 93 1020.1
20260902183026 66 207 2.0 5.0 0.00 0.00 0.00 93 1020.2
20260902182529 66 180 1.0 3.0 0.00 0.00 0.00 92 1019.8
20260902182023 65 184 1.0 3.0 0.00 0.00 0.00 92 1020.1
20260902181523 65 184 2.0 3.0 0.00 0.00 0.00 92 1020.3
20260902181023 65 184 0.0 6.0 0.00 0.00 0.00 92 1020.3
20260902180526 65 244 0.0 3.0 0.00 0.00 0.00 92 1020.4
20260902180032 65 265 0.0 2.0 0.00 0.00 0.00 91 1020.6
20260902175522 65 265 0.0 1.0 0.00 0.00 0.00 91 1020.9
20260902175025 65 265 0.0 0.0 0.00 0.00 0.00 91 1021.0
20260902174521 65 265 0.0 1.0 0.00 0.00 0.00 91 1021.0
20260902174021 65 265 0.0 1.0 0.00 0.00 0.00 90 1021.1
20260902173521 65 265 0.0 0.0 0.00 0.00 0.00 90 1021.3
20260902173030 65 265 0.0 3.0 0.00 0.00 0.00 89 1021.4
20260902172526 65 265 1.0 3.0 0.00 0.00 0.00 89 1021.6
20260902172020 65 239 1.0 3.0 0.00 0.00 0.00 89 1021.5
20260902171520 65 224 1.0 3.0 0.00 0.00 0.00 88 1021.3
20260902171020 65 224 0.0 2.0 0.00 0.00 0.00 88 1021.1
20260902170520 65 224 0.0 0.0 0.00 0.00 0.00 88 1021.0
20260902170019 65 224 0.0 3.0 0.00 0.00 0.00 88 1021.0
20260902165520 65 224 1.0 3.0 0.00 0.00 0.00 88 1021.1
20260902165019 65 224 1.0 4.0 0.00 0.00 0.00 88 1021.0
20260902164520 65 224 2.0 7.0 0.00 0.00 0.00 88 1021.2
20260902164022 65 222 3.0 7.0 0.00 0.00 0.00 88 1021.2
20260902163517 65 160 2.0 5.0 0.00 0.00 0.00 88 1021.2
20260902163018 65 158 0.0 3.0 0.00 0.00 0.00 89 1021.0
20260902162517 65 158 1.0 5.0 0.00 0.00 0.00 89 1021.1
20260902162019 65 158 1.0 5.0 0.00 0.00 0.00 89 1021.2
20260902161528 65 157 0.0 3.0 0.00 0.00 0.00 89 1021.3
20260902161016 65 156 1.0 3.0 0.00 0.00 0.00 89 1021.4
20260902160515 65 156 1.0 3.0 0.00 0.00 0.00 89 1021.2
20260902160015 65 156 0.0 3.0 0.00 0.00 0.00 90 1020.9
20260902155515 65 156 0.0 3.0 0.00 0.00 0.00 90 1020.9
20260902155015 65 156 0.0 3.0 0.00 0.00 0.00 90 1020.9
20260902154514 65 156 0.0 1.0 0.00 0.00 0.00 90 1020.8
20260902154020 65 156 0.0 3.0 0.00 0.00 0.00 90 1020.7
20260902153514 65 156 0.0 3.0 0.00 0.00 0.00 90 1020.9
20260902153015 65 156 1.0 5.0 0.00 0.00 0.00 91 1020.9
20260902152513 65 154 1.0 5.0 0.00 0.00 0.00 91 1021.0
20260902152014 65 154 1.0 3.0 0.00 0.00 0.00 91 1020.9
20260902151515 65 154 0.0 5.0 0.00 0.00 0.00 91 1020.9
20260902151013 64 164 2.0 5.0 0.00 0.00 0.00 91 1021.0
20260902150515 64 164 0.0 5.0 0.00 0.00 0.00 92 1020.9
20260902150013 64 217 2.0 4.0 0.00 0.00 0.00 92 1021.0
20260902145513 64 218 1.0 6.0 0.00 0.00 0.00 92 1021.1
20260902145012 64 205 2.0 6.0 0.00 0.00 0.00 93 1021.1
20260902144519 64 207 1.0 3.0 0.00 0.00 0.00 93 1021.1
20260902144012 64 175 0.0 4.0 0.00 0.00 0.00 93 1021.2
20260902143512 64 175 2.0 4.0 0.00 0.00 0.00 93 1021.4
20260902143012 64 175 1.0 4.0 0.00 0.00 0.00 93 1021.4
20260902142512 63 175 0.0 4.0 0.00 0.00 0.00 93 1021.5
20260902142012 63 175 1.0 4.0 0.00 0.00 0.00 93 1021.4
20260902141511 63 170 2.0 4.0 0.00 0.00 0.00 93 1021.4
20260902141011 63 165 1.0 3.0 0.00 0.00 0.00 93 1021.3
20260902140511 63 165 0.0 3.0 0.00 0.00 0.00 93 1021.2
20260902140011 63 165 1.0 6.0 0.00 0.00 0.00 93 1021.2
20260902135511 63 165 2.0 6.0 0.00 0.00 0.00 94 1021.2
20260902135010 63 157 1.0 5.0 0.00 0.00 0.00 94 1021.2
20260902134511 63 157 0.0 5.0 0.00 0.00 0.00 94 1021.3
20260902134109 63 157 3.0 5.0 0.00 0.00 0.00 94 1021.3
20260902133509 63 296 2.0 4.0 0.00 0.00 0.00 94 1021.5
20260902133009 63 155 0.0 3.0 0.00 0.00 0.00 94 1021.3
20260902132510 63 155 1.0 3.0 0.00 0.00 0.00 94 1021.1
20260902132007 62 156 0.0 3.0 0.00 0.00 0.00 94 1021.1
20260902131508 62 156 1.0 3.0 0.00 0.00 0.00 94 1021.2
20260902131009 62 156 1.0 3.0 0.00 0.00 0.00 94 1021.1
20260902130508 62 156 0.0 3.0 0.00 0.00 0.00 94 1021.0
20260902130007 62 156 0.0 3.0 0.00 0.00 0.00 94 1021.2
20260902125506 62 156 0.0 3.0 0.00 0.00 0.00 94 1020.9
20260902125005 62 156 1.0 3.0 0.00 0.00 0.00 94 1020.7
20260902124507 62 156 1.0 3.0 0.00 0.00 0.00 94 1020.7
20260902124005 62 156 0.0 3.0 0.00 0.00 0.00 94 1020.8
20260902123505 62 156 0.0 3.0 0.00 0.00 0.00 94 1020.7
20260902123005 62 154 0.0 5.0 0.00 0.00 0.00 94 1020.7
20260902122505 62 154 1.0 5.0 0.00 0.00 0.00 94 1020.7
20260902122004 62 159 0.0 3.0 0.00 0.00 0.00 94 1020.5
20260902121504 62 159 1.0 3.0 0.00 0.00 0.00 94 1020.4
20260902121004 62 159 0.0 3.0 0.00 0.00 0.00 94 1020.4
20260902120504 62 142 0.0 2.0 0.00 0.00 0.00 94 1020.5
20260902120002 63 142 0.0 2.0 0.00 0.00 0.00 94 1020.6
20260902115504 63 142 0.0 3.0 0.00 0.00 0.00 94 1020.6
20260902115002 63 142 1.0 3.0 0.00 0.00 0.00 94 1020.5
20260902114501 63 148 0.0 5.0 0.00 0.00 0.00 94 1020.5
20260902114003 63 148 1.0 5.0 0.00 0.00 0.00 94 1020.5
20260902113501 63 149 0.0 6.0 0.00 0.00 0.00 94 1020.5
20260902113001 63 161 1.0 4.0 0.00 0.00 0.00 94 1020.5
20260902112600 63 163 0.0 2.0 0.00 0.00 0.00 94 1020.6
20260902112100 63 163 0.0 0.0 0.00 0.00 0.00 94 1020.7
20260902111600 63 163 0.0 0.0 0.00 0.00 0.00 94 1020.6
20260902111059 63 163 0.0 1.0 0.00 0.00 0.00 94 1020.7
20260902110602 63 163 0.0 0.0 0.00 0.00 0.00 94 1020.6
20260902110059 63 164 0.0 0.0 0.00 0.00 0.00 94 1020.7
20260902105559 63 164 0.0 3.0 0.00 0.00 0.00 94 1020.6
20260902105058 63 164 0.0 3.0 0.00 0.00 0.00 94 1020.6
20260902104557 63 80 0.0 1.0 0.00 0.00 0.00 94 1020.6
20260902104058 63 80 0.0 0.0 0.00 0.00 0.00 94 1020.5
20260902103556 63 80 0.0 0.0 0.00 0.00 0.00 94 1020.5
20260902103056 63 80 0.0 1.0 0.00 0.00 0.00 94 1020.5
20260902102556 63 80 0.0 1.0 0.00 0.00 0.00 94 1020.3
20260902102056 63 80 0.0 0.0 0.00 0.00 0.00 94 1020.4
20260902101556 63 80 0.0 3.0 0.00 0.00 0.00 94 1020.4
20260902101055 63 80 0.0 3.0 0.00 0.00 0.00 94 1020.4
20260902100556 63 80 0.0 0.0 0.00 0.00 0.00 94 1020.4
20260902100054 63 80 0.0 0.0 0.00 0.00 0.00 94 1020.3
20260902095552 63 80 0.0 0.0 0.00 0.00 0.00 94 1020.3
20260902095056 63 80 0.0 0.0 0.00 0.00 0.00 94 1020.1
20260902094556 63 80 0.0 0.0 0.00 0.00 0.00 94 1020.1
20260902094053 63 80 0.0 0.0 0.00 0.00 0.00 94 1020.2
20260902093551 63 80 0.0 0.0 0.00 0.00 0.00 94 1020.1
20260902093050 63 80 0.0 0.0 0.00 0.00 0.00 94 1019.9
20260902092549 63 80 0.0 0.0 0.00 0.00 0.00 94 1019.9
20260902092049 63 80 0.0 0.0 0.00 0.00 0.00 94 1019.7
20260902091550 63 80 0.0 0.0 0.00 0.00 0.00 94 1019.7
20260902091049 63 80 0.0 0.0 0.00 0.00 0.00 94 1019.7
20260902090551 63 80 0.0 0.0 0.00 0.00 0.00 94 1019.7
20260902090049 63 80 0.0 0.0 0.00 0.00 0.00 94 1019.6
20260902085547 63 80 0.0 0.0 0.00 0.00 0.00 94 1019.6
20260902085047 63 80 0.0 0.0 0.00 0.00 0.00 94 1019.6
20260902084549 63 80 0.0 0.0 0.00 0.00 0.00 94 1019.5
20260902084047 63 80 0.0 0.0 0.00 0.00 0.00 94 1019.6
20260902083547 63 80 0.0 0.0 0.00 0.00 0.00 94 1019.6
20260902083049 63 80 0.0 0.0 0.00 0.00 0.00 94 1019.6
20260902082547 63 80 0.0 2.0 0.00 0.00 0.00 94 1019.5
20260902082046 63 80 0.0 2.0 0.00 0.00 0.00 94 1019.4
20260902081553 63 80 0.0 0.0 0.00 0.00 0.00 94 1019.4
20260902081046 63 80 0.0 0.0 0.00 0.00 0.00 94 1019.3
20260902080546 63 80 0.0 0.0 0.00 0.00 0.00 94 1019.2
20260902080046 63 80 0.0 0.0 0.00 0.00 0.00 94 1019.2
20260902075544 63 80 0.0 0.0 0.00 0.00 0.00 93 1019.1
20260902075048 63 80 0.0 1.0 0.00 0.00 0.00 93 1019.2
20260902074605 63 80 0.0 2.0 0.00 0.00 0.00 94 1019.3
20260902074046 63 80 0.0 2.0 0.00 0.00 0.00 94 1019.3
20260902073544 63 80 0.0 2.0 0.00 0.00 0.00 94 1019.4
20260902073044 64 80 0.0 3.0 0.00 0.00 0.00 94 1019.4
20260902072544 64 80 0.0 3.0 0.00 0.00 0.00 93 1019.4
20260902072043 64 80 0.0 3.0 0.00 0.00 0.00 93 1019.3
20260902071543 64 80 0.0 3.0 0.00 0.00 0.00 93 1019.4
20260902071043 64 80 1.0 3.0 0.00 0.00 0.00 93 1019.4
20260902070542 64 80 0.0 3.0 0.00 0.00 0.00 93 1019.5
20260902070043 64 80 0.0 3.0 0.00 0.00 0.00 93 1019.6
20260902065545 64 80 0.0 1.0 0.00 0.00 0.00 93 1019.5
20260902065042 64 80 0.0 1.0 0.00 0.00 0.00 93 1019.5
20260902064545 64 80 0.0 0.0 0.00 0.00 0.00 93 1019.6
20260902064041 64 80 0.0 0.0 0.00 0.00 0.00 93 1019.6
20260902063540 64 80 0.0 1.0 0.00 0.00 0.00 93 1019.6
20260902063100 64 80 0.0 1.0 0.00 0.00 0.00 93 1019.5
20260902062541 64 80 0.0 0.0 0.00 0.00 0.00 93 1019.5
20260902062040 64 80 0.0 2.0 0.00 0.00 0.00 93 1019.6
20260902061540 64 80 0.0 2.0 0.00 0.00 0.00 93 1019.6
20260902061040 64 80 0.0 0.0 0.00 0.00 0.00 93 1019.7
20260902060543 64 80 0.0 0.0 0.00 0.00 0.00 93 1019.7
20260902060052 64 80 0.0 0.0 0.00 0.00 0.00 93 1019.7
20260902055538 64 80 0.0 3.0 0.00 0.00 0.00 93 1019.6
20260902055038 64 80 0.0 3.0 0.00 0.00 0.00 93 1019.7
20260902054538 64 80 0.0 1.0 0.00 0.00 0.00 93 1019.7
20260902054036 64 80 0.0 2.0 0.00 0.00 0.00 93 1019.6
20260902053536 64 80 0.0 2.0 0.00 0.00 0.00 93 1019.6
20260902053036 64 80 0.0 2.0 0.00 0.00 0.00 93 1019.5
20260902052538 64 80 0.0 2.0 0.00 0.00 0.00 93 1019.6
20260902052035 64 80 0.0 3.0 0.00 0.00 0.00 93 1019.5
20260902051544 64 80 0.0 2.0 0.00 0.00 0.00 93 1019.4
20260902051033 64 80 0.0 1.0 0.00 0.00 0.00 93 1019.4
20260902050533 64 80 0.0 2.0 0.00 0.00 0.00 93 1019.2